sat.trackr.live / text

‹ back to catalog

STARLINK-32619

NORAD 62074 · 2024-217T

PAYLOAD ACTIVE UNKNOWN

§ Identity

Operator
Country
US
Launch date
2024-11-24
Launch site
AFWTR
Launch vehicle
Mass (kg)
RCS (m²)

Purposes: comms

External: N2YO · Heavens-Above · Gunter

§ Orbital elements

Epoch: 2026-05-25T04:16:33.678048Z

Period
93.85 min
Inclination
53.1585°
Eccentricity
0.0001210
Mean motion
15.34408795 rev/d
Perigee alt
461.8 km
Apogee alt
463.5 km
Semi-major
6,840.8 km
B*
5.4507e-4
RAAN
198.5052°
Arg perigee
78.8978°
Mean anomaly
281.2161°
Rev number
8,513

§ Raw data

STARLINK-326191 62074U 24217T   26145.17816757  .00018089  00000+0  54507-3 0  99942 62074  53.1585 198.5052 0001210  78.8978 281.2161 15.34408795 85133

JSON: /api/v1/satellites/62074 · /tle

For live sub-satellite position, see the globe view (requires WebGL).

§ Visibility from observer

Set your observer location to see the next 7 days of passes ≥ 10°. The values pass through the URL so the page stays shareable.

No JS? Fill the form by hand. The geolocation button needs JavaScript.